Location: *
(44.3683°N, 6.6958°E)
Time: 11:13:01
(UTC+00:00)

BREEZE-M DEB (TANK) - Pass Details

Date: 14 October 2019
Orbit: 326 x 16606 km, 49.4° (Epoch: 13 November)

Event Time Altitude Azimuth Distance (km) Brightness Sun altitude
Rises 19:13:38 0° 243° (WSW) 6,911 8.6 -26.0°
Reaches altitude 10° 19:20:04 10° 244° (WSW) 4,126 7.3 -27.2°
Enters shadow 19:27:20 62° 252° (WSW) 809 3.2 -28.4°
